Back to catalog

STARLINK-31890

AliveCommunicationsVLEO
NORAD 59785·PAYLOAD·🇺🇸 United States

Launched May 18, 2024 from Cape Canaveral Space Force Station

Loading…

Next Passes (next 24 hours)

TLE

FreshSource: CelesTrak SupGP

Epoch: Sep 15, 2026, 03:18 UTC

1 59785C 24093D   26258.13798611 -.00039125  00000+0 -14173-2 0  2588
2 59785  42.9996 215.5644 0000872 270.1523 273.0663 15.27593052    16

Track STARLINK-31890 in real time with AllMySat

Download on the App Store